Tracking 25953 objects as of 16-Aug-2022
HD Live streaming from Space Station
objects crossing your sky now

STARLINK-4092

Track STARLINK-4092 now!
10-day predictions
STARLINK-4092 is classified as:


NORAD ID: 52838
Int'l Code: 2022-062J
Perigee: 545.9 km
Apogee: 547.9 km
Inclination: 53.2 °
Period: 95.4 minutes
Semi major axis: 6917 km
RCS: Unknown
Launch date: June 17, 2022
Source: United States (US)
Launch site: AIR FORCE EASTERN TEST RANGE (AFETR)
aabbcc
Your satellite tracking list
Your tracking list is empty




NASA's NSSDC Master Catalog

Two Line Element Set (TLE):
1 52838U 22062J   22227.66667824  .00039173  00000-0  24662-2 0  9993
2 52838  53.2162 119.1302 0001501  95.0369 247.0822 15.08833228  9715
Source of the keplerian elements: AFSPC